Location: Carrières
(48.9495°N, 2.0407°E)
Time: 02:19:41
(UTC+00:00)

Transit 2A Rocket - Pass Details

Date: 24 April 2024
Orbit: 585 x 908 km, 66.7° (Epoch: 19 May)

Event Time Altitude Azimuth Distance (km) Brightness Sun altitude
Rises 13:48:41 0° 290° (WNW) 3,040 8.3 46.6°
Reaches altitude 10° 13:52:20 10° 319° (NW) 2,204 7.5 46.2°
Maximum altitude 13:54:35 13° 346° (NNW) 2,061 7.2 46.0°
Drops below altitude 10° 13:56:55 10° 13° (NNE) 2,304 7.2 45.7°
Sets 14:00:56 0° 41° (NE) 3,319 7.9 45.2°
